Погода в Веселом

Украина / Днепропетровская область     47°52′48″N   34°21′17″E
темп.,
°C
ветер,
м/с
пор.,
м/с
влажн.,
%
обл.,
%
осадки,
мм/ч
давл.,
гПа
погр.,
м
9 мая, вс
вс900:00+7ссз71480100 0.0 1016797
03:00+5сз41086100 0.0 1017375
06:00+5сз6138988 0.0 1019626
09:00+9ссз811595 0.0 10211343
12:00+12ссз911425 0.0 10222051
15:00+14ссз91138100 0.0 10222799
18:00+13сз794965 0.0 10242460
21:00+8сз486541 0.1 1026149
10 мая, пн
пн1000:00+6ссз356825 0.0 102776
03:00+5ссз36720 0.0 102783
06:00+5ссз37750 0.0 1028132
09:00+11с57510 0.0 10281104
12:00+14с67415 0.0 10261907
15:00+15с78395 0.0 10252276
18:00+14с684862 0.0 10232037
21:00+9ссз5126551 0.0 1023266
11 мая, вт
вт1100:00+8ссз6147126 0.0 1021383
03:00+9ссз81466100 0.0 1019579
06:00+8с8158185 0.2 1018603
09:00+9с71379100 0.2 1018550
12:00+12ссв71177100 0.0 1017870
15:00+12св698699 0.2 1017831
18:00+12св6106323 0.1 1017982
21:00+8св6117683 0.1 1017434
12 мая, ср
ср1200:00+8св7118292 0.2 1015958
03:00+7св81287100 0.5 1013809
06:00+7всв7991100 0.8 1013950
09:00+8вюв588792 1.9 1013579
12:00+13ююв7962100 0.9 10131461
15:00+14ю5860100 1.1 10121285
18:00+13ю356354 0.0 1013953
21:00+11вюв127356 0.1 101331
13 мая, чт
чт1300:00+9ююв228297 0.0 101333
03:00+9ююв11873 0.1 101314
06:00+8юв229081 0.0 101337
09:00+14юв457285 0.0 1013546
12:00+19юв56515 0.0 10121099
15:00+21ююв5751100 0.0 10111476
18:00+20ююв5957100 0.0 1011485
21:00+15ююв477781 0.0 1011126